{"data":{"norad_id":55807,"intl_designator":"2023-029M","name":"ONEWEB-0643","alt_names":[],"object_type":"PAYLOAD","status":"ACTIVE","operator":null,"country":"UK","launch_date":"2023-03-09","launch_site_code":"AFETR","launch_vehicle":null,"mission":null,"orbit_class":"UNKNOWN","rcs_meters":null,"size_class":null,"mass_kg":null,"dimensions":null,"purposes":["comms"],"wikipedia_slug":null,"has_3d_model":false,"image_url":null,"decayed_at":null,"tle_current":{"epoch":"2026-09-19T23:41:00.433248Z","epoch_age_seconds":70136,"freshness":"FRESH","line1":"1 55807U 23029M   26262.98681057 -.00000059  00000+0 -19426-3 0  9993","line2":"2 55807  87.8889 270.8130 0001428  73.0248 287.1038 13.14501924171845","mean_motion":13.14501924,"eccentricity":0.0001428,"inclination_deg":87.8889,"raan_deg":270.813,"arg_perigee_deg":73.0248,"mean_anomaly_deg":287.1038,"bstar":-0.00019426,"rev_number":17184,"period_min":109.54719606785,"perigee_km":1204.7107386835,"apogee_km":1206.8767092983,"semimajor_km":7583.9307239909,"source":"CELESTRAK","updated_at":"2026-09-20T09:00:44.761178Z"}}}